Regional Weather Roundup
Issued by NWS Northern Indiana

Home | Current Version | Previous Version | Graphics & Text | Print | Product List | Glossary On
Versions: 1 2 3 4 5 6 7 8 9 10 11 12 13 14 15 16 17 18 19 20 21 22 23 24 25 26 27 28 29 30 31 32 33 34 35 36 37 38 39 40 41 42 43 44 45 46 47 48 49 50
773
ASUS43 KIWX 270600
RWRIWX

KIWX WEATHER ROUNDUP
NATIONAL WEATHER SERVICE NORTHERN INDIANA
200 AM EDT MON MAR 27 2017

NOTE: "FAIR" INDICATES FEW OR NO CLOUDS BELOW 12,000 FEET WITH NO
SIGNIFICANT WEATHER AND/OR OBSTRUCTIONS TO VISIBILITY.

* THESE STATIONS ARE NOT UNDER NWS QUALITY CONTROL. THEY ALSO MAY NOT
  REPORT WEATHER SUCH AS PRECIPITATION OR FOG.

INZ001>027-270700-
NORTHERN INDIANA

CITY           SKY/WX    TMP DP  RH WIND       PRES   REMARKS
VALPARAISO     CLOUDY    52  49  89 SW12      29.90S
KNOX*          CLOUDY    50  37  62 W13       29.90S
SOUTH BEND     CLOUDY    51  50  96 SW10      29.89S
6HR MIN TEMP:  48; 6HR MAX TEMP:  52; 6HR PCP: TRACE;

GOSHEN         CLOUDY    53  49  86 SW7       29.88F
6HR MIN TEMP:  52; 6HR MAX TEMP:  57; 6HR PCP:  0.24;

MONTICELLO*    CLOUDY    51  49  92 W9        29.92S
6HR MIN TEMP:  51; 6HR MAX TEMP:  57;

ANGOLA*        CLOUDY    54  46  76 W6        29.88F
FORT WAYNE     CLOUDY    53  50  89 SW8       29.91S
6HR MIN TEMP:  52; 6HR MAX TEMP:  55; 6HR PCP:  0.19;

PERU/GRISSOM   CLOUDY    52  52 100 W12       29.90F
6HR MIN TEMP:  51; 6HR MAX TEMP:  58; 6HR PCP: TRACE;


$$
INZ028>050-270700-
CENTRAL INDIANA

CITY           SKY/WX    TMP DP  RH WIND       PRES   REMARKS
LAFAYETTE      CLOUDY    51  51 100 W8        29.93S FOG
6HR MIN TEMP:  51; 6HR MAX TEMP:  57; 6HR PCP:  0.01;

KOKOMO*        CLOUDY    53  51  93 W8        29.93S
6HR MIN TEMP:  53; 6HR MAX TEMP:  58; 6HR PCP: TRACE;

MUNCIE*        MOCLDY    55  49  80 SW6       29.92F
6HR MIN TEMP:  55; 6HR MAX TEMP:  58; 6HR PCP:  0.12;

INDIANAPOLIS   CLOUDY    51  48  89 SW8       29.95R
6HR MIN TEMP:  48; 6HR MAX TEMP:  57;


$$
MIZ043>046-050>051-056>058-064>065-071>073-077>080-270700-
SOUTHWEST LOWER MICHIGAN

CITY           SKY/WX    TMP DP  RH WIND       PRES   REMARKS
BATTLE CREEK   CLOUDY    53  52  96 W8        29.87S
6HR MIN TEMP:  51; 6HR MAX TEMP:  54; 6HR PCP:  0.02;

BENTON HARBOR  CLOUDY    51  49  92 SW9       29.87F
6HR MIN TEMP:  50; 6HR MAX TEMP:  57; 6HR PCP:  0.01;

COLDWATER*     CLOUDY    53  53  99 SW9       29.88S
6HR MIN TEMP:  52; 6HR MAX TEMP:  55;

HILLSDALE*     CLOUDY    50  50 100 SW5       29.87S
HOLLAND        CLOUDY    44  43  96 W6        29.87R FOG
6HR MIN TEMP:  44; 6HR MAX TEMP:  56; 6HR PCP:  0.02;

GRAND RAPIDS   CLOUDY    52  52 100 SW10      29.84F FOG
6HR MIN TEMP:  51; 6HR MAX TEMP:  53; 6HR PCP:  0.01;

KALAMAZOO      CLOUDY    53  49  86 SW8       29.87S
6HR MIN TEMP:  49; 6HR MAX TEMP:  54; 6HR PCP:  0.02;

STURGIS*       CLOUDY    52  50  94 W8        29.87S
6HR MIN TEMP:  49; 6HR MAX TEMP:  56; 6HR PCP:  0.02;

THREE RIVERS*  CLOUDY    52  52 100 SW5       29.88S FOG
6HR MIN TEMP:  48; 6HR MAX TEMP:  54;


$$
OHZ001>008-015>018-024>025-270700-
NORTHWEST OHIO

CITY           SKY/WX    TMP DP  RH WIND       PRES   REMARKS
DEFIANCE       CLOUDY    52  51  97 SW5       29.89F
6HR MIN TEMP:  52; 6HR MAX TEMP:  54; 6HR PCP:  0.09;

FINDLAY        CLOUDY    54  50  86 SW9       29.90S
6HR MIN TEMP:  53; 6HR MAX TEMP:  59; 6HR PCP:  0.05;

TOLEDO EXPRESS LGT RAIN  53  52  96 SW10      29.88F
6HR MIN TEMP:  51; 6HR MAX TEMP:  53; 6HR PCP:  0.14;

TOLEDO METCALF CLOUDY    53  52  96 SW8       29.89F
6HR MIN TEMP:  49; 6HR MAX TEMP:  54; 6HR PCP:  0.10;

LIMA             N/A     53  51  93 SW8       29.91F
6HR MIN TEMP:  53; 6HR MAX TEMP:  55; 6HR PCP:  0.02;


$$
AND FOR LAKE MICHIGAN COASTAL AND OPEN LAKE BUOY OBSERVATIONS

STATION/POSITION TEMP    WIND        PRES    VSBY  WAVE
                 AIR SEA DIR/SP/G                  HT/PER
                 (F)     (DEG/KT/KT) (MB)    (MI)  (FT/S)
CALUMET HARBOR    51     220/  5/ 11 1011.6R
MICHIGAN CITY     45     230/ 10/ 11   N/A
BURNS HARBOR      52     220/  8/ 12 1012.5S

$$
&&




USA.gov is the U.S. government's official web portal to all federal, state and local government web resources and services.